Weather History for Newton, IA

Change the Weather History Date:

Saturday, November 17, 2012

  Actual Average Record
Temperature  
Mean Temperature 46 °F -  
Max Temperature 60 °F 49 °F 71 °F (2001)
Min Temperature 32 °F 29 °F 5 °F (2005)
Degree Days  
Heating Degree Days 19    
Moisture  
Dew Point 33 °F    
Average Humidity 70    
Maximum Humidity 100    
Minimum Humidity 34    
Precipitation  
Precipitation 0.00 in - - ()
Sea Level Pressure  
Sea Level Pressure 30.34 in    
Wind  
Wind Speed 10 mph (SSE)    
Max Wind Speed 23 mph    
Max Gust Speed 26 mph    
Visibility 8 miles    
Events      
Averages and records for this station are not official NWS values.
T = Trace of Precipitation, MM = Missing Value Source: NWS Daily Summary

Daily Weather History Graph

Daily Weather History Graph

Search for Another Location

Airport:

Trip Planner

Search our weather history database for the weather conditions in past years. The results will help you decide how hot, cold, wet, or windy it might be!

Date:

Astronomy

Nov. 17, 2012 Rise Set
Actual Time 7:04 AM CST 4:49 PM CST
Civil Twilight 6:34 AM CST 5:19 PM CST
Nautical Twilight 6:00 AM CST 5:53 PM CST
Astronomical Twilight 5:27 AM CST 6:26 PM CST
Moon 10:49 AM CST (11/17) 9:00 PM CST (11/17)
Length of Visible Light 10h 45m
Length of Day
9h 45m
Waxing Crescent, 20% of the Moon is Illuminated
Nov 17
Waxing Crescent
Nov 20
First Quarter
Nov 28
Full
Dec 6
Last Quarter
Dec 13
New

Hourly Weather History & Observations

Time (CST) Temp. Windchill Dew Point Humidity Pressure Visibility Wind Dir Wind Speed Gust Speed Precip Events Conditions
12:15 AM 33.8 °F 26.4 °F 30.2 °F 87% 30.39 in 8.0 mi SSE 9.2 mph - N/A   Clear
12:35 AM 32.0 °F 25.6 °F 30.2 °F 93% 30.39 in 8.0 mi SSE 6.9 mph - N/A   Clear
12:55 AM 33.8 °F 27.7 °F 30.2 °F 87% 30.38 in 8.0 mi SSE 6.9 mph - N/A   Clear
1:15 AM 33.8 °F 28.6 °F 32.0 °F 93% 30.38 in 8.0 mi South 5.8 mph - N/A   Clear
1:35 AM 33.8 °F 27.0 °F 30.2 °F 87% 30.38 in 9.0 mi South 8.1 mph - N/A   Clear
1:55 AM 35.6 °F 29.2 °F 32.0 °F 87% 30.38 in 8.0 mi SSE 8.1 mph - N/A   Clear
2:15 AM 33.8 °F 26.4 °F 30.2 °F 87% 30.38 in 8.0 mi SE 9.2 mph - N/A   Clear
2:35 AM 33.8 °F 27.0 °F 30.2 °F 87% 30.39 in 7.0 mi SE 8.1 mph - N/A   Clear
2:55 AM 32.0 °F 24.8 °F 30.2 °F 93% 30.39 in 7.0 mi SE 8.1 mph - N/A   Clear
3:15 AM 32.0 °F 24.8 °F 30.2 °F 93% 30.39 in 6.0 mi SE 8.1 mph - N/A   Clear
3:35 AM 33.8 °F 27.0 °F 30.2 °F 87% 30.38 in 7.0 mi SE 8.1 mph - N/A   Clear
3:55 AM 33.8 °F 27.0 °F 32.0 °F 93% 30.38 in 6.0 mi SE 8.1 mph - N/A   Clear
4:15 AM 33.8 °F 27.0 °F 32.0 °F 93% 30.38 in 7.0 mi SE 8.1 mph - N/A   Clear
4:35 AM 33.8 °F 27.0 °F 32.0 °F 93% 30.38 in 6.0 mi SE 8.1 mph - N/A   Clear
4:55 AM 33.8 °F 25.8 °F 32.0 °F 93% 30.38 in 6.0 mi SE 10.4 mph - N/A   Clear
5:15 AM 32.0 °F 24.2 °F 30.2 °F 93% 30.38 in 5.0 mi SE 9.2 mph - N/A   Clear
5:35 AM 32.0 °F 24.2 °F 30.2 °F 93% 30.38 in 5.0 mi SE 9.2 mph - N/A   Clear
5:55 AM 32.0 °F 24.2 °F 30.2 °F 93% 30.38 in 5.0 mi SE 9.2 mph - N/A   Clear
6:15 AM 32.0 °F 24.8 °F 30.2 °F 93% 30.38 in 5.0 mi SE 8.1 mph - N/A   Clear
6:35 AM 32.0 °F 24.8 °F 30.2 °F 93% 30.38 in 5.0 mi SE 8.1 mph - N/A   Clear
6:55 AM 32.0 °F 24.8 °F 30.2 °F 93% 30.38 in 4.0 mi SE 8.1 mph - N/A   Clear
7:15 AM 32.0 °F 24.2 °F 30.2 °F 93% 30.39 in 3.0 mi SE 9.2 mph - N/A   Clear
7:35 AM 32.0 °F 23.6 °F 32.0 °F 100% 30.39 in 4.0 mi SE 10.4 mph - N/A   Clear
7:55 AM 33.8 °F 25.8 °F 32.0 °F 93% 30.39 in 4.0 mi SE 10.4 mph - N/A   Clear
8:15 AM 35.6 °F 27.5 °F 32.0 °F 87% 30.39 in 5.0 mi SE 11.5 mph - N/A   Clear
8:35 AM 37.4 °F 30.3 °F 33.8 °F 87% 30.40 in 5.0 mi SE 10.4 mph - N/A   Clear
8:55 AM 39.2 °F 32.5 °F 33.8 °F 81% 30.40 in 6.0 mi SSE 10.4 mph - N/A   Clear
9:15 AM 41.0 °F 33.9 °F 35.6 °F 81% 30.39 in 8.0 mi SSE 12.7 mph - N/A   Clear
9:35 AM 42.8 °F 35.8 °F 35.6 °F 76% 30.39 in 9.0 mi SSE 13.8 mph - N/A   Clear
9:55 AM 44.6 °F 38.8 °F 35.6 °F 71% 30.39 in 9.0 mi South 11.5 mph - N/A   Clear
10:15 AM 48.2 °F - 35.6 °F 62% 30.39 in 10.0 mi South 12.7 mph - N/A   Clear
10:35 AM 50.0 °F - 35.6 °F 58% 30.38 in 10.0 mi SSE 12.7 mph - N/A   Clear
11:55 AM 55.4 °F - 35.6 °F 47% 30.35 in 10.0 mi South 17.3 mph 23.0 mph N/A   Clear
12:15 PM 57.2 °F - 35.6 °F 44% 30.34 in 10.0 mi South 15.0 mph - N/A   Clear
12:35 PM 57.2 °F - 35.6 °F 44% 30.33 in 10.0 mi South 17.3 mph - N/A   Clear
12:55 PM 59.0 °F - 33.8 °F 39% 30.33 in 10.0 mi SSW 17.3 mph - N/A   Clear
1:15 PM 59.0 °F - 33.8 °F 39% 30.32 in 10.0 mi South 18.4 mph 25.3 mph N/A   Clear
1:35 PM 60.8 °F - 33.8 °F 36% 30.32 in 10.0 mi South 19.6 mph - N/A   Clear
1:55 PM 60.8 °F - 32.0 °F 34% 30.31 in 10.0 mi South 16.1 mph - N/A   Clear
2:15 PM 60.8 °F - 32.0 °F 34% 30.30 in 10.0 mi South 16.1 mph 25.3 mph N/A   Clear
2:35 PM 59.0 °F - 32.0 °F 36% 30.29 in 10.0 mi South 19.6 mph - N/A   Clear
2:55 PM 59.0 °F - 32.0 °F 36% 30.29 in 10.0 mi South 18.4 mph 26.5 mph N/A   Clear
3:15 PM 59.0 °F - 32.0 °F 36% 30.28 in 10.0 mi South 23.0 mph - N/A   Clear
3:35 PM 59.0 °F - 32.0 °F 36% 30.28 in 10.0 mi South 20.7 mph - N/A   Clear
3:55 PM 57.2 °F - 32.0 °F 38% 30.29 in 10.0 mi South 16.1 mph - N/A   Clear
4:15 PM 55.4 °F - 33.8 °F 44% 30.30 in 10.0 mi SSE 10.4 mph - N/A   Clear
4:35 PM 53.6 °F - 33.8 °F 47% 30.29 in 10.0 mi SSE 13.8 mph - N/A   Clear
4:55 PM 51.8 °F - 33.8 °F 50% 30.30 in 10.0 mi SSE 12.7 mph - N/A   Clear
5:15 PM 50.0 °F - 32.0 °F 50% 30.30 in 10.0 mi SSE 10.4 mph - N/A   Clear
5:35 PM 48.2 °F - 33.8 °F 58% 30.30 in 10.0 mi SSE 12.7 mph - N/A   Clear
5:55 PM 48.2 °F - 33.8 °F 58% 30.30 in 10.0 mi SSE 11.5 mph - N/A   Clear
6:15 PM 46.4 °F 40.7 °F 33.8 °F 62% 30.29 in 10.0 mi SE 12.7 mph - N/A   Clear
6:35 PM 44.6 °F 38.4 °F 33.8 °F 66% 30.29 in 10.0 mi SE 12.7 mph - N/A   Clear
6:55 PM 44.6 °F 38.8 °F 33.8 °F 66% 30.29 in 10.0 mi SE 11.5 mph - N/A   Clear
7:15 PM 44.6 °F 39.2 °F 33.8 °F 66% 30.30 in 10.0 mi SE 10.4 mph - N/A   Clear
7:35 PM 44.6 °F 38.8 °F 33.8 °F 66% 30.30 in 10.0 mi SE 11.5 mph - N/A   Clear
7:55 PM 44.6 °F 38.8 °F 33.8 °F 66% 30.30 in 10.0 mi SE 11.5 mph - N/A   Clear
8:15 PM 44.6 °F 38.8 °F 33.8 °F 66% 30.30 in 10.0 mi SE 11.5 mph - N/A   Clear
8:35 PM 44.6 °F 39.2 °F 33.8 °F 66% 30.30 in 10.0 mi SSE 10.4 mph - N/A   Clear
8:55 PM 44.6 °F 39.2 °F 33.8 °F 66% 30.31 in 10.0 mi SSE 10.4 mph 21.9 mph N/A   Clear
9:15 PM 44.6 °F 39.2 °F 33.8 °F 66% 30.30 in 10.0 mi SSE 10.4 mph - N/A   Clear
9:35 PM 44.6 °F 38.8 °F 33.8 °F 66% 30.30 in 10.0 mi SSE 11.5 mph - N/A   Clear
9:55 PM 42.8 °F 36.6 °F 32.0 °F 66% 30.30 in 10.0 mi SSE 11.5 mph - N/A   Clear
10:15 PM 41.0 °F 34.7 °F 32.0 °F 70% 30.30 in 10.0 mi SSE 10.4 mph - N/A   Clear
10:35 PM 41.0 °F 34.7 °F 32.0 °F 70% 30.30 in 10.0 mi SSE 10.4 mph - N/A   Clear
10:55 PM 39.2 °F 32.5 °F 32.0 °F 75% 30.30 in 10.0 mi SSE 10.4 mph - N/A   Clear
11:15 PM 41.0 °F 34.3 °F 32.0 °F 70% 30.30 in 10.0 mi SSE 11.5 mph - N/A   Clear
11:35 PM 39.2 °F 32.5 °F 32.0 °F 75% 30.29 in 10.0 mi SSE 10.4 mph - N/A   Clear
11:55 PM 39.2 °F 32.5 °F 30.2 °F 70% 30.29 in 10.0 mi SSE 10.4 mph - N/A   Clear